• In Russia
  • List of Countries
  • For 7 days
  • Water Temperature
  • Satellite Maps
  • Weather Map
  • Weather Widgets
  • user-avatar
    Login

    Hourly Weather Kinshasa

    Today, 22 February, Friday

    Time Temperature Precipitation Wind Pressure Humidity
    00:00 +28°C° 0 mm 1 mps 707 mmHg 37%
    01:00 +28°C° 0 mm 1 mps 707 mmHg 42%
    02:00 +27°C° 0 mm 2 mps 707 mmHg 46%
    03:00 +27°C° 0 mm 2 mps 707 mmHg 50%
    04:00 +27°C° 0 mm 3 mps 707 mmHg 55%
    05:00 +26°C° 0 mm 3 mps 708 mmHg 58%
    06:00 +26°C° 0 mm 3 mps 708 mmHg 62%
    07:00 +26°C° 0 mm 3 mps 708 mmHg 65%
    08:00 +28°C° 0 mm 3 mps 709 mmHg 61%
    09:00 +30°C° 0 mm 2 mps 709 mmHg 56%
    10:00 +32°C° 0 mm 2 mps 709 mmHg 51%
    11:00 +36°C° 0 mm 2 mps 709 mmHg 42%
    12:00 +39°C° 0 mm 1 mps 709 mmHg 33%
    13:00 +39°C° 0 mm 2 mps 708 mmHg 31%
    14:00 +37°C° 0 mm 1 mps 707 mmHg 30%
    15:00 +37°C° 0 mm 1 mps 707 mmHg 29%
    16:00 +37°C° 0 mm 1 mps 706 mmHg 28%
    17:00 +36°C° 0 mm 2 mps 706 mmHg 32%
    18:00 +34°C° 0 mm 2 mps 706 mmHg 37%
    19:00 +31°C° 0 mm 2 mps 706 mmHg 42%
    20:00 +30°C° 0 mm 2 mps 706 mmHg 47%
    21:00 +29°C° 0 mm 2 mps 707 mmHg 53%
    22:00 +28°C° 0 mm 2 mps 707 mmHg 59%
    23:00 +28°C° 0.4 mm 2 mps 708 mmHg 65%

    Tomorrow, 23 February, Saturday

    Time Temperature Precipitation Wind Pressure Humidity
    00:00 +27°C° 0.4 mm 2 mps 708 mmHg 72%
    01:00 +26°C° 0.4 mm 2 mps 708 mmHg 78%
    02:00 +25°C° 0.2 mm 2 mps 708 mmHg 81%
    03:00 +25°C° 0.2 mm 2 mps 708 mmHg 84%
    04:00 +24°C° 0.2 mm 2 mps 707 mmHg 87%
    05:00 +24°C° 0 mm 2 mps 708 mmHg 85%
    06:00 +24°C° 0 mm 3 mps 708 mmHg 84%
    07:00 +25°C° 0 mm 3 mps 708 mmHg 83%
    08:00 +27°C° 0 mm 3 mps 708 mmHg 71%
    09:00 +30°C° 0 mm 3 mps 709 mmHg 60%
    10:00 +33°C° 0 mm 3 mps 709 mmHg 48%
    11:00 +36°C° 0 mm 3 mps 709 mmHg 41%
    12:00 +38°C° 0 mm 2 mps 708 mmHg 34%
    13:00 +40°C° 0 mm 2 mps 707 mmHg 27%
    14:00 +39°C° 0 mm 2 mps 707 mmHg 28%
    15:00 +38°C° 0 mm 2 mps 706 mmHg 30%
    16:00 +35°C° 0 mm 1 mps 705 mmHg 32%
    17:00 +34°C° 0 mm 1 mps 705 mmHg 34%
    18:00 +34°C° 0 mm 1 mps 706 mmHg 37%
    19:00 +33°C° 0 mm 1 mps 706 mmHg 39%
    20:00 +32°C° 0 mm 2 mps 706 mmHg 42%
    21:00 +31°C° 0 mm 2 mps 707 mmHg 45%
    22:00 +31°C° 0 mm 2 mps 707 mmHg 47%
    23:00 +30°C° 0 mm 2 mps 707 mmHg 50%

    Day after tomorrow, 24 February, Sunday

    Time Temperature Precipitation Wind Pressure Humidity
    00:00 +30°C° 0 mm 2 mps 707 mmHg 53%
    01:00 +29°C° 0 mm 2 mps 706 mmHg 55%
    02:00 +28°C° 0.3 mm 2 mps 706 mmHg 60%
    03:00 +28°C° 0.3 mm 2 mps 706 mmHg 64%
    04:00 +27°C° 0.3 mm 2 mps 706 mmHg 68%
    05:00 +26°C° 0.4 mm 2 mps 706 mmHg 71%
    06:00 +26°C° 0.4 mm 2 mps 706 mmHg 74%
    07:00 +26°C° 0.4 mm 2 mps 707 mmHg 76%
    08:00 +28°C° 0.1 mm 2 mps 707 mmHg 66%
    09:00 +31°C° 0.1 mm 2 mps 708 mmHg 55%
    10:00 +35°C° 0.1 mm 2 mps 709 mmHg 45%
    11:00 +35°C° 0 mm 1 mps 708 mmHg 41%
    12:00 +36°C° 0 mm 1 mps 707 mmHg 37%
    13:00 +39°C° 0 mm 1 mps 706 mmHg 33%
    14:00 +37°C° 0 mm 1 mps 706 mmHg 33%
    15:00 +34°C° 0 mm 0 mps 705 mmHg 34%
    16:00 +34°C° 0 mm 0 mps 704 mmHg 35%
    17:00 +32°C° 0 mm 0 mps 705 mmHg 39%
    18:00 +33°C° 0 mm 1 mps 705 mmHg 42%
    19:00 +31°C° 0 mm 1 mps 705 mmHg 45%
    20:00 +31°C° 0 mm 1 mps 705 mmHg 48%
    21:00 +30°C° 0 mm 1 mps 706 mmHg 51%
    22:00 +29°C° 0 mm 1 mps 706 mmHg 53%
    23:00 +29°C° 0 mm 1 mps 706 mmHg 55%

    25 February, Monday

    Time Temperature Precipitation Wind Pressure Humidity
    00:00 +28°C° 0 mm 1 mps 706 mmHg 57%
    01:00 +28°C° 0 mm 1 mps 705 mmHg 59%
    02:00 +27°C° 0.1 mm 1 mps 705 mmHg 63%
    03:00 +27°C° 0.1 mm 1 mps 705 mmHg 66%
    04:00 +26°C° 0.1 mm 1 mps 705 mmHg 69%
    05:00 +26°C° 1.3 mm 1 mps 705 mmHg 73%
    06:00 +25°C° 1.3 mm 2 mps 706 mmHg 77%
    07:00 +25°C° 1.3 mm 2 mps 706 mmHg 81%
    08:00 +27°C° 0 mm 2 mps 707 mmHg 71%
    09:00 +30°C° 0 mm 2 mps 708 mmHg 60%
    10:00 +32°C° 0 mm 2 mps 708 mmHg 50%
    11:00 +35°C° 0.4 mm 2 mps 707 mmHg 46%
    12:00 +35°C° 0.4 mm 1 mps 707 mmHg 42%
    13:00 +36°C° 0.4 mm 1 mps 706 mmHg 37%
    14:00 +36°C° 0 mm 1 mps 705 mmHg 38%
    15:00 +36°C° 0 mm 1 mps 705 mmHg 39%
    16:00 +35°C° 0 mm 1 mps 704 mmHg 40%
    17:00 +34°C° 0.1 mm 1 mps 704 mmHg 45%
    18:00 +32°C° 0.1 mm 2 mps 705 mmHg 49%
    19:00 +31°C° 0.1 mm 2 mps 705 mmHg 54%
    20:00 +29°C° 6.5 mm 2 mps 706 mmHg 65%
    21:00 +27°C° 6.5 mm 2 mps 706 mmHg 75%
    22:00 +26°C° 6.5 mm 3 mps 707 mmHg 85%
    23:00 +25°C° 2.1 mm 2 mps 706 mmHg 86%

    26 February, Tuesday

    Time Temperature Precipitation Wind Pressure Humidity
    00:00 +25°C° 2.1 mm 2 mps 706 mmHg 87%
    01:00 +25°C° 2.1 mm 2 mps 706 mmHg 88%
    02:00 +24°C° 1.3 mm 2 mps 706 mmHg 88%
    03:00 +24°C° 1.3 mm 2 mps 706 mmHg 88%
    04:00 +23°C° 1.3 mm 1 mps 706 mmHg 88%
    05:00 +23°C° 0.3 mm 1 mps 706 mmHg 87%
    06:00 +24°C° 0.3 mm 1 mps 707 mmHg 87%
    07:00 +24°C° 0.3 mm 1 mps 707 mmHg 87%
    08:00 +26°C° 0 mm 1 mps 708 mmHg 76%
    09:00 +29°C° 0 mm 1 mps 708 mmHg 66%
    10:00 +31°C° 0 mm 1 mps 709 mmHg 56%
    11:00 +33°C° 0.1 mm 1 mps 708 mmHg 50%
    12:00 +35°C° 0.1 mm 1 mps 707 mmHg 44%
    13:00 +36°C° 0.1 mm 1 mps 707 mmHg 38%
    14:00 +36°C° 0 mm 1 mps 706 mmHg 39%
    15:00 +35°C° 0 mm 1 mps 705 mmHg 40%
    16:00 +34°C° 0 mm 1 mps 705 mmHg 40%
    17:00 +32°C° 1.1 mm 1 mps 705 mmHg 52%
    18:00 +29°C° 1.1 mm 2 mps 705 mmHg 65%
    19:00 +27°C° 1.1 mm 3 mps 706 mmHg 77%
    20:00 +26°C° 0.4 mm 2 mps 706 mmHg 78%
    21:00 +26°C° 0.4 mm 2 mps 707 mmHg 80%
    22:00 +26°C° 0.4 mm 1 mps 707 mmHg 82%
    23:00 +26°C° 0.2 mm 1 mps 707 mmHg 82%

    27 February, Wednesday

    Time Temperature Precipitation Wind Pressure Humidity
    00:00 +26°C° 0.2 mm 1 mps 707 mmHg 82%
    01:00 +24°C° 0.2 mm 0 mps 707 mmHg 82%
    02:00 +24°C° 0 mm 0 mps 706 mmHg 82%
    03:00 +24°C° 0 mm 0 mps 706 mmHg 82%
    04:00 +23°C° 0 mm 0 mps 706 mmHg 82%
    05:00 +23°C° 0 mm 0 mps 707 mmHg 81%
    06:00 +23°C° 0 mm 0 mps 707 mmHg 79%
    07:00 +24°C° 0 mm 0 mps 708 mmHg 78%
    08:00 +24°C° 0 mm 0 mps 708 mmHg 74%
    09:00 +26°C° 0 mm 1 mps 709 mmHg 69%
    10:00 +26°C° 0 mm 1 mps 709 mmHg 65%
    11:00 +28°C° 0 mm 1 mps 709 mmHg 50%
    12:00 +31°C° 0 mm 2 mps 708 mmHg 35%
    13:00 +34°C° 0 mm 3 mps 707 mmHg 20%
    14:00 +35°C° 0 mm 3 mps 707 mmHg 19%
    15:00 +35°C° 0 mm 2 mps 706 mmHg 19%
    16:00 +36°C° 0 mm 2 mps 705 mmHg 19%
    17:00 +34°C° 0 mm 2 mps 706 mmHg 23%
    18:00 +30°C° 0 mm 1 mps 706 mmHg 27%
    19:00 +26°C° 0 mm 0 mps 706 mmHg 31%
    20:00 +25°C° 0 mm 0 mps 706 mmHg 33%
    21:00 +25°C° 0 mm 0 mps 706 mmHg 35%
    22:00 +24°C° 0 mm 0 mps 707 mmHg 37%
    23:00 +23°C° 0 mm 0 mps 706 mmHg 39%
    Show more